Wind_Speed
18 16 15 17 17 15 14 14 13 12 12 11 12 13 12 12 13 12 10 10 10 10 10 9 10 10 9 10 9 8 8 7 7 7 6 6 6 7 7 4 6 8
18 17 16 17 17 15 15 15 13 13 13 11 11 11 12 12 12 10 9 10 11 10 10 9 9 10 9 9 9 8 9 8 7 7 6 6 6 7 7 6 6 6
19 18 17 17 17 16 15 15 14 13 13 12 11 11 12 12 11 9 9 10 10 10 11 10 9 10 10 10 10 9 8 7 7 8 7 6 6 6 7 8 6 3
19 19 18 17 17 15 15 16 15 14 14 13 12 12 13 14 14 13 12 10 10 10 10 10 9 10 10 10 10 9 9 9 8 8 7 7 7 6 7 8 8 6
19 19 18 17 17 16 15 16 16 15 15 16 15 13 12 14 15 16 16 13 11 11 10 9 10 10 10 10 10 10 10 10 9 7 6 6 6 7 6 7 7 8
19 18 18 18 17 16 17 17 16 15 15 15 14 13 13 13 13 14 15 14 12 13 11 10 10 10 10 10 10 11 10 10 9 8 8 7 7 8 8 7 7 9
19 18 18 17 15 16 17 16 15 14 14 13 12 13 14 15 14 12 12 13 13 14 12 9 9 10 10 10 10 11 11 10 10 9 7 7 8 9 10 9 8 9
19 18 19 18 16 16 17 16 14 14 15 14 12 13 14 15 15 12 11 11 12 13 12 9 8 8 9 9 9 11 11 10 10 9 7 6 7 7 8 9 9 9
19 19 20 21 19 18 17 15 13 14 16 15 13 12 13 12 12 12 11 11 11 11 11 11 10 10 10 10 10 10 10 10 10 10 8 8 8 7 7 8 9 9
19 19 20 22 20 18 18 17 15 15 17 16 14 13 12 11 11 12 12 12 12 13 13 13 14 14 12 12 12 10 9 9 10 10 9 8 7 7 7 7 7 7
20 19 20 21 21 18 17 18 18 17 18 18 18 16 13 12 12 12 13 13 13 15 16 16 16 15 13 12 12 11 9 8 9 10 10 10 8 6 6 6 6 6
21 20 19 19 19 18 16 17 17 17 17 18 19 18 16 15 14 14 16 16 14 14 15 15 14 14 12 11 11 11 11 9 9 10 10 10 10 8 8 6 5 5
20 20 19 18 18 17 16 17 17 16 15 16 17 18 18 17 15 14 16 16 13 13 13 13 13 13 12 12 12 12 11 10 10 10 9 10 10 8 7 7 7 7
18 17 17 17 17 16 17 17 17 16 15 14 16 16 17 18 17 15 14 14 14 12 12 12 12 12 12 12 12 12 12 12 11 10 10 10 10 8 7 8 8 8
19 18 17 17 16 16 17 17 16 15 14 14 14 13 12 15 19 18 16 15 14 12 12 13 13 12 13 12 11 11 12 12 11 11 11 11 10 9 9 9 8 7
21 21 20 19 19 18 17 18 18 16 14 14 14 12 10 13 16 18 18 16 14 12 13 14 14 14 14 13 12 12 12 11 10 10 10 10 10 9 9 8 8 7
23 24 24 23 23 21 18 18 19 17 14 15 16 14 11 11 13 14 14 14 13 13 13 14 15 15 14 13 13 12 12 11 10 9 8 8 8 7 6 5 5 5
24 25 26 25 25 24 20 19 21 20 15 14 17 17 14 13 14 15 15 15 15 15 16 17 17 16 14 13 14 13 12 10 10 10 8 5 5 5 4 4 5 6
25 24 24 26 27 27 23 20 22 24 21 16 16 19 19 19 19 19 19 19 18 18 19 18 18 17 14 13 14 14 13 10 10 11 9 7 7 7 8 8 8 9
28 26 24 25 27 28 28 25 24 25 26 22 19 19 22 23 22 21 21 21 19 18 17 16 16 16 15 13 14 14 13 11 11 11 12 12 11 11 11 12 12 12
31 30 27 26 27 27 28 29 28 27 27 27 25 22 22 23 23 23 23 23 22 20 17 16 16 16 16 15 15 14 14 13 12 12 13 14 14 12 12 13 13 13
32 31 29 28 29 28 28 28 30 30 28 28 27 26 25 24 23 24 24 24 24 23 21 20 19 18 18 17 16 15 15 15 15 15 16 16 16 15 15 15 14 15
29 30 30 30 31 32 30 29 29 30 29 28 27 26 27 26 25 25 26 25 24 23 23 22 21 21 20 19 18 17 17 17 17 18 18 18 17 17 17 18 17 17
27 27 29 32 32 33 33 31 30 31 30 29 27 26 26 28 28 28 27 26 25 24 23 23 22 22 21 20 19 18 18 19 20 20 19 18 17 17 17 18 17 17
26 25 28 31 31 31 31 31 30 31 30 28 27 27 29 31 31 29 28 27 26 26 25 24 23 23 22 21 20 19 19 20 21 21 20 19 18 18 18 17 17 17
21 23 26 28 28 28 29 28 27 27 27 26 26 27 30 32 31 29 27 27 26 26 26 25 25 25 24 23 21 21 21 20 20 20 20 19 19 19 18 18 18 18
Wind_Direction
186 187 181 180 184 184 185 189 186 184 185 183 179 177 173 177 179 173 174 179 174 174 170 166 170 172 176 178 171 168 166 166 170 166 171 179 170 166 166 155 170 177
188 188 182 180 184 184 185 189 188 184 187 185 181 180 173 172 176 176 186 190 184 185 180 174 176 176 181 182 178 180 177 174 177 170 167 178 178 182 183 160 152 176
189 188 186 184 186 187 185 187 187 186 187 184 185 188 179 175 182 189 198 197 192 193 186 182 185 181 184 188 186 188 184 183 187 178 174 178 177 182 181 164 155 169
190 189 188 187 189 189 184 186 188 187 187 187 191 195 189 187 190 194 203 205 197 194 186 184 190 188 187 189 187 188 185 187 196 191 184 184 183 184 178 171 174 184
192 190 190 191 191 188 184 187 190 188 188 190 193 197 197 198 195 196 206 209 198 196 196 193 192 190 192 189 185 193 191 186 198 206 199 195 199 199 186 179 187 198
193 192 191 193 191 188 187 188 190 188 189 192 195 193 192 199 205 205 208 207 198 199 206 209 200 192 195 192 187 199 199 189 197 208 206 208 214 209 196 194 211 226
194 193 191 189 188 189 191 193 193 189 187 193 199 195 191 199 211 213 208 202 198 204 210 208 202 199 200 197 192 200 207 201 204 213 215 218 221 217 213 212 217 231
196 195 190 187 189 192 193 195 195 187 184 192 200 202 203 206 211 212 205 197 195 205 209 203 210 217 209 204 200 200 209 213 213 220 230 234 232 228 227 225 224 235
198 197 192 188 192 195 193 194 195 187 185 193 201 209 212 210 209 208 204 200 195 196 200 203 223 232 217 215 219 210 210 216 216 221 230 234 234 238 239 236 236 243
201 201 196 192 193 194 191 191 198 197 191 192 199 211 217 212 207 204 204 207 199 194 198 205 220 231 225 220 226 224 218 216 215 223 234 238 235 234 236 237 239 243
203 201 200 197 194 195 195 195 200 204 199 193 194 201 208 211 211 207 208 214 208 202 207 210 216 226 227 222 225 228 228 225 222 227 237 244 248 246 243 246 249 256
204 200 200 201 196 196 201 203 206 211 208 199 197 198 200 208 214 210 208 215 219 214 215 216 215 222 225 224 225 228 230 229 228 231 234 237 242 245 246 246 250 265
205 201 199 202 201 197 201 207 210 215 214 204 200 203 205 209 213 209 208 217 225 226 224 220 218 222 225 223 221 225 230 230 230 234 236 236 242 246 244 244 243 253
205 205 201 202 206 202 202 211 216 218 221 214 210 214 215 212 211 212 216 221 225 228 229 227 222 221 223 223 220 222 228 232 233 235 237 242 248 251 249 250 249 250
203 205 205 203 210 211 207 213 221 224 227 225 223 228 226 215 212 214 220 223 224 226 229 232 230 224 223 225 222 221 227 234 238 238 241 246 249 252 254 253 252 257
205 205 206 204 209 216 214 214 221 227 229 229 230 230 228 223 216 214 218 224 229 233 231 231 232 229 227 227 225 225 229 235 241 243 245 250 253 258 263 259 253 257
210 209 208 205 207 213 214 212 218 226 226 224 228 228 227 230 221 213 217 226 234 239 235 231 233 233 230 228 228 228 225 228 238 244 246 254 258 261 269 271 262 258
216 215 212 210 210 212 211 207 214 224 223 213 218 221 219 220 220 216 220 226 227 229 229 230 236 238 235 233 232 228 223 226 238 245 248 254 257 260 267 271 268 262
223 221 217 215 214 215 214 209 211 221 225 214 206 209 209 212 216 216 217 218 216 219 227 232 237 240 241 241 236 229 226 228 235 242 246 246 248 255 257 260 267 268
229 227 222 219 219 219 218 217 216 220 225 222 212 204 204 209 212 211 212 215 217 220 227 232 237 240 243 243 238 233 232 232 233 236 240 245 250 253 251 252 255 259
230 229 225 223 223 221 219 220 220 221 224 226 223 216 211 211 214 215 217 221 226 230 231 230 233 240 244 244 241 238 238 238 236 233 235 244 252 254 252 251 253 257
229 229 227 225 224 223 222 223 223 222 223 226 227 228 228 224 222 224 227 230 234 236 235 233 235 239 243 243 242 241 240 239 238 237 238 245 251 252 250 250 253 256
227 228 228 227 225 225 227 227 225 225 226 226 228 230 234 234 232 232 234 237 237 237 236 236 239 241 241 241 239 239 241 242 241 242 244 247 251 252 250 250 254 258
226 227 228 227 226 229 231 229 226 227 228 228 229 232 235 237 236 234 235 237 238 238 237 237 239 241 242 241 239 239 241 244 246 247 247 249 251 249 247 250 255 260
223 222 224 225 225 228 230 227 225 226 227 228 231 232 233 236 236 235 235 236 237 239 239 239 240 242 242 241 242 244 245 246 247 248 248 249 250 247 245 249 254 259
211 211 215 220 224 227 230 228 225 224 224 225 227 226 228 231 234 234 234 233 232 234 237 239 239 240 240 240 242 245 245 244 245 247 247 246 246 246 247 249 252 256
Height
1582 1583 1584 1585 1586 1587 1588 1589 1590 1591 1592 1593 1594 1595 1596 1597 1598 1599 1599 1600 1601 1602 1602 1603 1604 1605 1606 1606 1607 1608 1608 1609 1609 1610 1611 1611 1612 1612 1612 1613 1614 1614
1581 1582 1584 1585 1585 1586 1587 1588 1589 1590 1591 1592 1594 1595 1595 1596 1597 1598 1599 1600 1601 1601 1602 1603 1604 1604 1605 1606 1607 1607 1608 1608 1609 1610 1610 1611 1611 1612 1612 1613 1614 1614
1580 1581 1582 1584 1585 1586 1587 1588 1589 1590 1591 1592 1593 1594 1595 1596 1597 1597 1599 1599 1600 1601 1602 1602 1603 1604 1605 1605 1606 1607 1608 1608 1609 1609 1610 1610 1611 1612 1612 1613 1613 1614
1578 1580 1581 1582 1584 1585 1586 1587 1588 1589 1590 1591 1592 1593 1594 1595 1596 1597 1598 1599 1600 1600 1601 1602 1602 1603 1604 1605 1605 1606 1607 1608 1608 1609 1609 1610 1611 1611 1612 1612 1613 1613
1577 1578 1580 1581 1582 1584 1585 1586 1587 1589 1590 1591 1592 1593 1594 1595 1596 1597 1598 1599 1599 1600 1600 1601 1602 1602 1603 1604 1605 1606 1607 1607 1608 1608 1609 1610 1610 1611 1611 1612 1612 1612
1576 1577 1579 1580 1581 1583 1584 1585 1587 1588 1589 1590 1591 1592 1594 1594 1595 1596 1597 1598 1599 1599 1600 1601 1601 1602 1602 1603 1604 1605 1606 1607 1607 1608 1609 1609 1610 1610 1610 1611 1611 1611
1574 1576 1578 1579 1581 1582 1583 1584 1586 1587 1588 1590 1591 1592 1593 1593 1594 1595 1596 1597 1598 1599 1599 1600 1601 1601 1602 1603 1604 1605 1605 1606 1606 1607 1608 1608 1609 1609 1609 1610 1610 1610
1574 1575 1577 1578 1580 1581 1582 1583 1585 1586 1587 1589 1590 1591 1592 1593 1594 1594 1595 1596 1597 1598 1599 1599 1600 1601 1601 1602 1603 1604 1604 1605 1605 1606 1607 1607 1608 1608 1609 1609 1609 1609
1573 1574 1576 1578 1579 1580 1581 1582 1584 1585 1586 1588 1589 1590 1590 1592 1593 1593 1594 1595 1596 1597 1598 1599 1600 1600 1601 1601 1602 1603 1604 1604 1605 1605 1606 1606 1607 1607 1608 1608 1608 1609
1572 1573 1575 1577 1578 1579 1581 1582 1583 1584 1585 1587 1587 1588 1589 1590 1591 1592 1593 1594 1595 1596 1597 1598 1599 1600 1600 1601 1601 1602 1603 1603 1604 1604 1605 1605 1606 1606 1606 1607 1607 1607
1571 1572 1574 1576 1577 1579 1580 1581 1582 1583 1584 1585 1586 1587 1588 1589 1590 1591 1592 1593 1594 1595 1596 1597 1598 1599 1599 1600 1601 1601 1602 1602 1603 1604 1604 1604 1605 1605 1605 1606 1606 1606
1570 1572 1573 1575 1576 1578 1579 1580 1581 1582 1583 1584 1585 1586 1587 1587 1588 1590 1590 1591 1593 1594 1594 1595 1596 1597 1598 1599 1600 1600 1601 1601 1602 1603 1603 1603 1604 1604 1604 1605 1605 1605
1569 1571 1573 1575 1576 1577 1579 1580 1580 1581 1582 1583 1584 1584 1585 1586 1587 1588 1589 1590 1591 1592 1593 1594 1595 1596 1597 1598 1598 1599 1600 1600 1601 1601 1602 1602 1603 1603 1603 1604 1604 1604
1570 1572 1573 1575 1576 1577 1578 1579 1580 1581 1581 1582 1583 1583 1584 1585 1586 1587 1588 1589 1590 1591 1592 1593 1594 1595 1596 1596 1597 1598 1598 1599 1599 1600 1601 1601 1602 1602 1602 1603 1603 1603
1570 1572 1573 1574 1575 1576 1577 1578 1579 1580 1580 1581 1582 1583 1583 1584 1586 1587 1587 1588 1589 1590 1591 1592 1592 1593 1594 1595 1596 1596 1597 1598 1598 1599 1599 1600 1600 1601 1601 1601 1601 1602
1570 1571 1572 1573 1574 1575 1576 1577 1577 1578 1579 1580 1581 1582 1582 1583 1584 1585 1586 1587 1588 1588 1589 1590 1591 1592 1593 1594 1595 1595 1596 1596 1597 1597 1598 1598 1599 1599 1600 1600 1600 1601
1568 1569 1570 1571 1571 1572 1574 1575 1576 1576 1578 1579 1580 1581 1582 1582 1583 1584 1585 1586 1586 1587 1588 1588 1589 1590 1591 1592 1593 1594 1595 1595 1595 1596 1597 1597 1597 1598 1598 1598 1599 1599
1566 1567 1568 1569 1570 1571 1572 1573 1573 1574 1575 1577 1578 1579 1581 1581 1581 1582 1583 1584 1585 1585 1586 1586 1587 1588 1590 1591 1591 1592 1593 1594 1594 1595 1595 1596 1596 1596 1597 1597 1597 1597
1564 1565 1566 1568 1569 1570 1571 1571 1572 1572 1573 1574 1576 1577 1579 1579 1579 1579 1580 1581 1582 1583 1584 1585 1586 1587 1588 1589 1590 1590 1591 1592 1593 1593 1594 1594 1595 1594 1595 1594 1594 1595
1563 1564 1565 1567 1567 1568 1569 1569 1570 1571 1571 1573 1574 1575 1577 1577 1577 1577 1578 1579 1579 1581 1582 1584 1585 1586 1587 1587 1588 1589 1590 1590 1591 1592 1592 1592 1592 1592 1593 1593 1593 1593
1561 1562 1564 1565 1565 1566 1567 1567 1568 1568 1569 1571 1573 1574 1575 1575 1575 1576 1576 1577 1578 1579 1580 1581 1583 1584 1585 1586 1586 1587 1588 1588 1589 1590 1590 1590 1590 1590 1591 1590 1591 1591
1559 1560 1561 1562 1562 1563 1564 1565 1565 1566 1567 1569 1571 1572 1573 1573 1574 1574 1575 1575 1576 1577 1578 1578 1580 1581 1583 1584 1585 1585 1586 1586 1587 1587 1587 1587 1588 1588 1589 1589 1589 1589
1556 1557 1558 1558 1559 1560 1561 1562 1563 1563 1564 1567 1569 1570 1570 1570 1572 1572 1573 1573 1573 1574 1575 1576 1577 1579 1580 1581 1582 1583 1583 1584 1584 1585 1585 1585 1586 1586 1587 1587 1587 1587
1553 1555 1555 1555 1556 1557 1558 1559 1560 1560 1561 1564 1566 1568 1568 1568 1569 1569 1570 1570 1571 1572 1573 1573 1574 1576 1577 1579 1580 1580 1581 1581 1582 1582 1583 1583 1584 1584 1585 1585 1585 1585
1550 1552 1553 1553 1554 1554 1553 1555 1556 1556 1558 1561 1564 1565 1564 1564 1565 1566 1566 1567 1568 1569 1570 1571 1572 1573 1575 1576 1577 1578 1578 1578 1579 1580 1580 1581 1581 1582 1582 1583 1583 1583
1548 1550 1550 1551 1552 1550 1549 1550 1552 1553 1556 1559 1560 1560 1560 1560 1561 1562 1563 1564 1566 1567 1567 1568 1570 1571 1572 1573 1574 1574 1575 1576 1577 1578 1578 1578 1578 1579 1580 1580 1580 1581